Hourly Weather Roundup
Issued by NWS Central Illinois

Home | Current Version | Previous Version | Text Only | Print | Product List | Glossary On
Versions: 1 2 3 4 5 6 7 8 9 10 11 12 13 14 15 16 17 18 19 20 21 22 23 24 25 26 27 28 29 30 31 32 33 34 35 36 37 38 39 40 41 42 43 44 45 46 47 48 49 50
000
NZUS43 KILX 152310
HWRILX

AREA WEATHER ROUNDUP
NATIONAL WEATHER SERVICE, LINCOLN IL
600 PM CDT TUE APR 15 2014


CITY           SKY/WX    TMP DP  RH WIND       PRES   REMARKS
BLOOMINGTON    SUNNY     39  14  36 W7        30.17R WCI  34
CHAMPAIGN      PTSUNNY   41  20  43 W13       30.17R WCI  34
DANVILLE       PTSUNNY   37  20  49 NW7       30.16R WCI  32
DECATUR        MOSUNNY   43  17  35 NW12      30.17S
FLORA          SUNNY     43  20  39 N8        30.21S
GALESBURG      SUNNY     41  19  40 W8        30.14S
JACKSONVILLE   SUNNY     46  19  34 W7        30.17S
LACON          MOSUNNY   41  15  34 NW9       30.15R
LAWRENCEVILLE  SUNNY     41  21  44 NW10      30.21R WCI  35
LITCHFIELD     SUNNY     43  21  42 CALM      30.18S
$$


CITY           SKY/WX    TMP DP  RH WIND       PRES   REMARKS
LINCOLN        MOSUNNY   44  17  34 CALM      30.18R
MACOMB         SUNNY     43  22  43 W7        30.17S
MATTOON        PTSUNNY   42  20  41 W9        30.18R
MT CARMEL AP   PTSUNNY   45  23  42 NW15      30.20S
OLNEY-NOBLE AP SUNNY     41  21  45 NW8       30.21S
PARIS          CLOUDY    40  22  49 CALM      30.19F
PEORIA         SUNNY     43  15  32 W8        30.16R
PONTIAC        MOSUNNY   39  19  45 W9        30.17R WCI  33
RANTOUL        MOSUNNY   40  21  45 CALM      30.18R
ROBINSON       PTSUNNY   44  25  47 N3        30.21S
SPRINGFIELD    SUNNY     46  17  31 W15G21    30.17S
TAYLORVILLE    PTSUNNY   43  21  42 W7        30.18S
$$

...REGIONAL REPORTS...


CITY           SKY/WX    TMP DP  RH WIND       PRES   REMARKS
CHICAGO O`HARE PTSUNNY   38  16  40 W12       30.14R WCI  30
KANKAKEE       PTSUNNY   37  20  51 W8        30.17S WCI  30
MOLINE         SUNNY     42   8  24 W6        30.14R
MOUNT VERNON   SUNNY     45  18  33 N7        30.21S
PITTSFIELD     SUNNY     47  18  31 W7        30.16S
QUINCY         SUNNY     47  17  30 W9        30.14S
ROCKFORD       PTSUNNY   38  15  39 SW7       30.14S WCI  33
$$


CITY           SKY/WX    TMP DP  RH WIND       PRES   REMARKS
BURLINGTON     SUNNY     44  20  38 W8        30.13S
CEDAR RAPIDS   SUNNY     39  11  31 VRB6      30.10F WCI  35
DES MOINES     MOSUNNY   47  19  33 S8        30.06F
KIRKSVILLE     SUNNY     48  17  29 VRB6      30.11F
OTTUMWA        SUNNY     45  19  35 SW5       30.10F
ST LOUIS       MOSUNNY   48  17  29 N3        30.18S
$$


CITY           SKY/WX    TMP DP  RH WIND       PRES   REMARKS
TERRE HAUTE    CLOUDY    39  21  48 N8        30.19S WCI  33
EVANSVILLE     PTSUNNY   43  22  43 N9        30.22R
INDIANAPOLIS   PTSUNNY   35  17  47 N12       30.18R WCI  27
LAFAYETTE      CLOUDY    36  15  42 VRB7      30.19R WCI  30
MADISON        PTSUNNY   36  13  38 W7        30.11F WCI  30
MILWAUKEE      PTSUNNY   31  18  58 SE14      30.14R WCI  21
$$




USA.gov is the U.S. government's official web portal to all federal, state and local government web resources and services.